www.pogodaiklimat.ru

Погода и климат >> Архив погоды >> Беларусь >> Брагин


ПОГОДА в Брагине

  • Прогноз погоды в Брагине
  • Монитор погоды в Брагине

АРХИВ ПОГОДЫ в Брагине

Время (UTC), дата Ветер
(напр.,м/с)
 
Видим.   Явления Облачность Т
(С)
Тd
(С)
f
(%)
Тe
(С)
Тes
(С)
Комфортность P
(гПа)
Po
(гПа)
Тmin
(С)
Tmax
(С)
R
(мм)
R24
(мм)
S
(см)
18 9.06 С 1 50 км {гроза} 8/4 600 м
[Sc diur, vesp Ci fib]
+21.9 +18.1 79 +27 +27 душно 1021.8 1008.3 +32.1
06 10.06 СВ 1 45 км 3/0
[Ci fib]
+23.6 +16.7 65 +27 +36 жарко 1022.4 1009.0 +14.2
09 10.06 СВ 2 45 км 3/1 1000 м
[Cu hum Ci fib]
+29.1 +16.4 46 +32 +47 душно 1021.4 1008.3
12 10.06 Ю 1 50 км 8/8 1020 м
[Cu med, cong]
+30.9 +14.6 37 +33 +36 душно 1020.0 1007.0
15 10.06 СЗ 4 45 км гроза без осадков 9/9 570 м
[Cb cap]
+25.7 +16.6 57 +29 +30 душно 1019.3 1006.0
18 10.06 ЮВ 2
{10}
35 км {гроза, ливн. осадки} 8/3 600 м
[Sc diur, vesp Ci fib]
+25.3 +18.0 64 +30 +30 душно 1019.4 1006.1 +32.9 0.1
06 11.06 В 2 35 км ясно +25.6 +18.4 64 +30 +38 душно 1020.5 1007.2 +14.6
09 11.06 В 3 50 км 3/3 1000 м
[Cu hum]
+29.9 +15.5 42 +33 +42 душно 1019.7 1006.6
12 11.06 ЮВ 3 60 км 4/4 1000 м
[Cu hum]
+31.9 +14.6 35 +34 +41 душно 1018.3 1005.4
15 11.06 ЮВ 3 50 км 3/3 1000 м
[Cu hum]
+31.3 +15.5 38 +34 +36 душно 1017.5 1004.5
18 11.06 штиль 0 45 км 3/3 600 м
[Sc diur, vesp]
+27.4 +16.6 52 +31 +31 душно 1018.0 1004.8 +32.3
06 12.06 В 1 40 км ясно +27.1 +18.1 58 +32 +41 очень
душно
1017.9 1004.7 +14.6
09 12.06 В 2 65 км 5/5 1000 м
[Cu hum]
+30.7 +16.0 41 +34 +42 очень
душно
1017.0 1004.0
12 12.06 В 1 50 км 8/8 1170 м
[Cu hum]
+32.2 +14.8 35 +34 +37 душно 1015.7 1002.8
15 12.06 ЮВ 1 н/о 3/3 1000 м
[Cu hum]
+31.4 +15.1 37 +34 +37 душно 1014.8 1001.6
18 12.06 Ю 1 45 км ясно +28.5 +14.4 42 +31 +31 душно 1015.1 1002.0 +33.1
06 13.06 Ю 1 30 км ясно +26.5 +17.2 57 +31 +40 душно 1017.8 1004.6 +14.9
09 13.06 Ю 2 60 км 8/8 1170 м
[Cu hum]
+31.1 +13.9 35 +33 +36 душно 1018.0 1005.0
12 13.06 В 3 45 км 8/8 1170 м
[Cu med, cong]
+32.0 +15.4 37 +34 +37 душно 1017.6 1004.7
15 13.06 В 1 35 км гроза без осадков 6/6 570 м
[Cb cap]
+27.6 +19.1 60 +33 +35 очень
душно
1018.0 1004.8
18 13.06 В 1 29 км {гроза} 8/0
[Ci]
+25.4 +19.6 70 +31 +31 очень
душно
1018.2 1004.9 +33.0
06 14.06 ЮВ 3 40 км 5/0
[Ci fib]
+24.0 +18.2 70 +28 +34 душно 1019.9 1006.5 +18.4
09 14.06 ЮВ 2 40 км 6/3 1000 м
[Cu hum Ci fib]
+29.3 +19.0 54 +35 +45 очень
душно
1018.9 1005.8
12 14.06 ЮВ 1 50 км 9/5 1000 м
[Cu med, cong Ci]
+31.4 +17.0 42 +35 +42 очень
душно
1017.8 1004.8
15 14.06 Ю 1
{11}
40 км гроза без осадков {ливн. осадки} 9/6 570 м
[Cb cap Ci]
+28.7 +20.6 62 +36 +38 очень
душно
1016.9 1003.8
18 14.06 штиль 0 30 км {гроза, ливн. осадки} 9/0
[Ci]
+24.6 +21.2 81 +31 +31 очень
душно
1016.8 1003.5 +31.8 5
06 15.06 С 3 30 км 3/0
[Ci fib]
+24.4 +19.3 73 +29 +36 душно 1016.8 1003.5 +16.5
09 15.06 СЗ 4 35 км 1/0
[Ci fib]
+28.4 +14.7 43 +31 +42 душно 1016.2 1003.1
12 15.06 С 4 45 км 1/1 1000 м
[Cu hum]
+30.4 +13.1 35 +32 +40 жарко 1014.9 1001.9
15 15.06 С 4 45 км 1/1 1000 м
[Cu hum]
+30.0 +14.4 39 +32 +35 жарко 1013.8 1000.8
18 15.06 С 1 45 км ясно +26.3 +13.6 45 +28 +28 жарко 1013.7 1000.5 +31.2
06 16.06 В 2 55 км ясно +22.9 +15.0 61 +27 +35 душно 1015.1 1001.7 +14.9
09 16.06 В 1 65 км 8/0
[Ci]
+27.2 +12.8 41 +29 +45 жарко 1014.5 1001.4
12 16.06 СВ 1 55 км 9/0
[Ci]
+29.2 +11.3 33 +30 +44 жарко 1014.2 1001.2

 

Местоположение метеостанции Брагин (Гомельская область, Беларусь): широта 51.79 долгота 30.26 высота над уровнем моря 116 м.

В архиве по умолчанию представлена погода в Брагине за последнюю неделю. Архивные данные за месяц целиком и за предыдущие месяцы, начиная с января 2011 года, Вы можете получить, выбрав интересующий диапазон дат из раскрывающегося списка и нажав кнопку "Ввод!".


*Определитесь, кто Вы:
робот инопланетянин человек

Внимание! Время в таблицах - всемирное. Для получения местного времени необходимо прибавить поправку, которая равна 3 ч.

Смотрите также архив погоды в соседних городах и на ближайших метеорологических станциях:

Погода в Чернобыле (Киевская область, Украина) (57 км)
Погода в Василевичах (Гомельская область, Беларусь) (59 км)
Погода в Чернигове (Черниговская область, Украина) (77 км)
Погода в Мозыре (Гомельская область, Беларусь) (78 км)
Погода в Гомеле (Гомельская область, Беларусь) (83 км)
Погода в Остере (Черниговская область, Украина) (103 км)
Погода в Овруче (Житомирская область, Украина) (115 км)
Погода в Щорсе (Черниговская область, Украина) (118 км)
Погода в Покошичах (Черниговская область, Украина) (124 км)
Погода в Жлобине (Гомельская область, Беларусь) (124 км)

Пояснения к столбцам:

Ветер - указаны скорость ветра в м/с - средняя за 10 мин, порывы в срок и между сроками (в фигурных скобках) и направление, откуда дует ветер: С - северный, СВ - северо-восточный, В - восточный, ЮВ - юго-восточный, Ю - южный, ЮЗ - юго-западный, З - западный, СЗ - северо-западный.
Видимость - горизонтальная дальность видимости в метрах или километрах. При видимости от 1 до 10 км при отсутствии осадков обычно наблюдается дымка, при ухудшении видимости до 1 км и менее - туман. В сухую погоду видимость может ухудшаться дымом, пылью или мглою.
Явления - указаны атмосферные явления, наблюдавшиеся в срок или в последний час перед сроком; фигурными скобками обозначены явления, наблюдавшиеся между сроками (за 1-3 часа до срока); квадратными скобками обозначены град или гололедные отложения с указанием их диаметра в мм.
Облачность - указаны через наклонную черту общая и нижняя облачность в баллах и высота нижней границы облаков в метрах; квадратными скобками обозначены формы облаков: Ci - перистые, Cs - перисто-слоистые, Cc - перисто-кучевые, Ac - высококучевые, As - высокослоистые, Sc - слоисто-кучевые, Ns - слоисто-дождевые, Cu - кучевые, Cb - кучево-дождевые. Подробнее классификацию облаков см. в Атласе облаков (PDF).
T - Температура воздуха - температура, измеренная на высоте 2 м над землей.
Td - Температура точки росы - температура, при понижении до которой содержащийся в воздухе водяной пар достигнет насыщения.
f - Относительная влажность воздуха - влажноcть воздуха, измеренная на высоте 2 м над землей.
Te - Эффективная температура - температура, которую ощущает одетый по сезону человек в тени. Характеристика душности погоды. При расчете учитывается влияние влажности воздуха и скорости ветра на теплоощущения человека.
Tes - Эффективная температура на солнце - температура, которую ощущает человек, с поправкой на солнечный нагрев. Характеристика знойности погоды. Зависит от высоты солнца над горизонтом, облачности и скорости ветра. Ночью, в пасмурную погоду, а также при ветре 12 м/с и более поправка равна нулю.
P - Атмосферное давление - приведенное к уровню моря атмосферное давление.
Po - Атмосферное давление - измеренное на уровне метеостанции атмосферное давление.
Tmin - Минимальная температура - минимум температуры воздуха на высоте 2 м над землей.
Tmax - Максимальная температура - максимум температуры воздуха на высоте 2 м над землей.
R - Количество осадков - Количество выпавших осадков за период времени, мм. При наведении курсора мыши на число - период времени, за который выпало указанное количество осадков.
R24 - Количество осадков - Количество выпавших осадков за 24 часа, мм.
S - Снежный покров - Высота снежного покрова, см. При наведении курсора мыши на число - состояние снежного покрова и степень покрытия местности в баллах.